Location: Cuzcurrita-R�o Tir�n
(42.5415°N, 2.9642°W)
Time: 08:44:48
(UTC+00:00)

Lacrosse 5 - Visible Passes

Search period start: 09 May 2021 00:00
Search period end: 19 May 2021 00:00
Orbit: 718 x 721 km, 57.0° (Epoch: 02 April)

Date Brightness Start Highest point End Pass type
(mag) Time Alt. Az. Time Alt. Az. Time Alt. Az.
09 May 4.0 00:50:13 17° E 00:50:13 17° E 00:52:00 10° ENE visible
09 May 2.0 02:29:24 48° WSW 02:30:43 69° NW 02:35:49 10° NE visible
09 May 3.8 04:10:35 10° WNW 04:14:31 22° NNW 04:18:26 10° NNE visible
10 May 1.9 01:37:56 67° E 01:37:56 67° E 01:42:39 10° NE visible
10 May 3.3 03:17:07 13° W 03:20:57 29° NNW 03:25:23 10° NNE visible
11 May 3.3 00:46:25 28° E 00:46:25 28° E 00:49:17 10° ENE visible
11 May 2.7 02:25:36 30° W 02:27:31 43° NW 02:32:22 10° NE visible
11 May 4.1 04:08:14 10° NW 04:11:41 18° NNW 04:15:06 10° NNE visible
11 May 4.3 23:54:51 12° ENE 23:54:51 12° ENE 23:55:29 10° ENE visible
12 May 1.9 01:34:01 68° WNW 01:34:14 69° NW 01:39:19 10° NE visible
12 May 3.9 03:14:05 10° WNW 03:18:00 22° NNW 03:21:57 10° NNE visible
13 May 2.5 00:42:24 48° ENE 00:42:24 48° ENE 00:46:10 10° NE visible
13 May 3.4 02:21:34 18° WNW 02:24:27 29° NNW 02:28:54 10° NNE visible
13 May 4.3 04:05:49 10° NW 04:08:54 16° N 04:12:01 10° NNE visible
13 May 3.6 23:50:43 22° ENE 23:50:43 22° ENE 23:52:46 10° ENE visible
14 May 2.8 01:29:52 37° WNW 01:31:00 43° NW 01:35:53 10° NE visible
14 May 4.2 03:11:44 10° NW 03:15:11 18° NNW 03:18:37 10° NNE visible
14 May 4.4 22:58:58 10° ENE 22:58:58 10° ENE 22:58:58 10° ENE visible
15 May 2.1 00:38:06 67° N 00:38:06 67° N 00:42:49 10° NE visible
15 May 4.0 02:17:34 10° WNW 02:21:30 22° NNW 02:25:27 10° NNE visible
15 May 4.4 04:03:07 10° NW 04:06:10 16° N 04:09:14 10° NE visible
15 May 2.7 23:46:16 41° ENE 23:46:16 41° ENE 23:49:39 10° NE visible
16 May 3.5 01:25:24 20° WNW 01:27:57 29° NNW 01:32:24 10° NNE visible
16 May 4.4 03:09:18 10° NW 03:12:24 16° N 03:15:30 10° NNE visible
16 May 3.5 22:54:17 22° ENE 22:54:17 22° ENE 22:56:16 10° ENE visible
17 May 2.8 00:33:25 38° WNW 00:34:30 43° NW 00:39:23 10° NE visible
17 May 4.3 02:15:13 10° NW 02:18:40 18° NNW 02:22:07 10° NNE visible
17 May 4.5 04:00:04 10° NNW 04:03:25 17° N 04:06:46 10° NE visible
17 May 4.1 22:02:09 11° ENE 22:02:09 11° ENE 22:02:27 10° ENE visible
17 May 2.0 23:41:17 70° NW 23:41:17 70° NW 23:46:20 10° NE visible
18 May 4.1 01:21:03 10° WNW 01:25:00 22° NNW 01:28:57 10° NNE visible
18 May 4.5 03:06:36 10° NW 03:09:40 16° N 03:12:44 10° NE visible
18 May 2.0 22:48:53 58° E 22:48:53 58° E 22:53:10 10° NE visible
